Content
SEND FEEDBACK

Daily
Averages
Monthly
Summary
United States of America

ACTON, MONTANA


Home > North America > United States > Montana
Elevation: 3220 feet     Latitude: 45 48N     Longitude: 108 32W

WEATHER
 
SELECT A DAY
Number of Records: 195,120;   Date Range: 1/1/95 - 12/26/14
 
SHARE

PRINT THIS DATA

[ ← Previous Day ]
WEATHER ALMANAC - FEBRUARY 13, 2013
[ Next Day → ]
[ °C ]   °F
Weather ElementAverageHighLow
Temperature34.2 °F48 °F (10:53 am)28 °F (11:30 pm)
Dewpoint24.8 °F34 °F (1:53 pm)14 °F (1:53 am)
Humidity70.6 %92 % (11:15 pm)34 % (10:53 am)
Barometer29.99 in30.17 in (11:53 pm)29.85 in (4:53 am)
Wind Speed16.9 mph34.5 mph (11:53 am)
Wind Gust44.9 mph (11:53 am)
Weather ElementAverage
Visibility8.1 mi
Wind DirectionSW (219.5 °)

Weather ElementTotal
Precipitation0.22 in
Heating Degree Days27 (Base 65)
Averaged from 40 records on February 13, 2013
WEATHER CONDITIONS BREAKOUT
WIND DIRECTION BREAKOUT
WEATHER BY HOUR - FEBRUARY 13, 2013
[ °C ]   °F
Local TimeTemperatureDewpointHumidityBarometerVisibilityWind DirectionWind SpeedGust SpeedPrecipitationEventsConditions
1:53 AM30.0 °F14.0 °F51 %29.92 in10.0 miWSW (240°)20.7 mphPartly Cloudy
2:53 AM30.9 °F14.0 °F50 %29.91 in10.0 miSW (230°)23.0 mphScattered Clouds
3:53 AM30.0 °F14.0 °F51 %29.90 in10.0 miWSW (240°)24.2 mphPartly Cloudy
4:53 AM32.0 °F15.8 °F51 %29.85 in10.0 miWSW (240°)18.4 mphPartly Cloudy
5:53 AM32.0 °F16.0 °F52 %29.92 in10.0 miWSW (240°)19.6 mphScattered Clouds
6:53 AM30.2 °F15.8 °F55 %29.85 in10.0 miWSW (240°)18.4 mphMostly Cloudy
7:53 AM32.0 °F16.0 °F52 %29.94 in10.0 miWSW (240°)18.4 mphMostly Cloudy
8:53 AM33.1 °F17.1 °F52 %29.92 in10.0 miSW (230°)19.6 mphMostly Cloudy
9:53 AM37.9 °F19.9 °F48 %29.91 in10.0 miWSW (240°)13.8 mphMostly Cloudy
10:53 AM48.0 °F21.0 °F34 %29.89 in10.0 miWNW (300°)27.6 mph39.1 mphOvercast
11:53 AM48.0 °F21.9 °F36 %29.90 in10.0 miWNW (290°)34.5 mph44.9 mphMostly Cloudy
12:32 PM44.1 °F26.1 °F49 %29.89 in10.0 miNNW (340°)25.3 mph33.4 mphMostly Cloudy
12:53 PM37.9 °F30.0 °F73 %29.96 in10.0 miNorth (350°)25.3 mph33.4 mph0.00 inMostly Cloudy
1:14 PM37.0 °F30.9 °F79 %29.92 in4.0 miNNW (340°)23.0 mph34.5 mph0.00 inRain-SnowLight Rain
1:33 PM37.0 °F32.0 °F82 %29.91 in10.0 miNNW (340°)19.6 mph32.2 mph0.00 inRain-SnowLight Rain
1:48 PM39.2 °F33.8 °F81 %29.91 in10.0 miNNW (330°)20.7 mph36.8 mph0.01 inMostly Cloudy
1:53 PM39.9 °F34.0 °F79 %29.98 in10.0 miNNW (340°)25.3 mph33.4 mph0.01 inMostly Cloudy
2:53 PM41.0 °F25.0 °F53 %29.97 in10.0 miWNW (300°)25.3 mph31.1 mph0.00 inMostly Cloudy
3:38 PM39.0 °F27.0 °F62 %29.93 in10.0 miNorth (360°)20.7 mph27.6 mphScattered Clouds
3:53 PM37.0 °F28.0 °F70 %30.01 in10.0 miNorth (360°)16.1 mph27.6 mphScattered Clouds
4:29 PM36.0 °F28.0 °F73 %29.96 in2.0 miNorth (360°)15.0 mph26.5 mph0.00 inSnowLight Snow
4:35 PM35.1 °F28.9 °F78 %29.96 in4.0 miNorth (350°)18.4 mph26.5 mph0.00 inSnowLight Snow
4:53 PM36.0 °F28.9 °F76 %30.04 in10.0 miNorth (350°)15.0 mph0.00 inMostly Cloudy
5:53 PM35.1 °F27.0 °F72 %30.03 in10.0 miNorth (360°)12.7 mphMostly Cloudy
6:53 PM34.0 °F26.1 °F73 %30.07 in10.0 miNNW (340°)5.8 mphPartly Cloudy
7:53 PM30.9 °F26.1 °F82 %30.09 in10.0 miWSW (240°)8.1 mphScattered Clouds
8:53 PM32.0 °F27.0 °F82 %30.10 in10.0 miWNW (300°)5.8 mphMostly Cloudy
9:13 PM33.1 °F27.0 °F78 %30.02 in10.0 miWNW (300°)6.9 mphOvercast
9:53 PM33.1 °F28.0 °F82 %30.10 in10.0 miNE (40°)6.9 mphMostly Cloudy
10:03 PM32.0 °F27.0 °F82 %30.03 in10.0 miNE (40°)6.9 mphMostly Cloudy
10:44 PM30.9 °F28.0 °F89 %30.05 in10.0 miNNE (30°)5.8 mphMostly Cloudy
10:53 PM30.9 °F27.0 °F85 %30.11 in10.0 miNNE (30°)9.2 mphMostly Cloudy
11:03 PM30.9 °F27.0 °F85 %30.07 in10.0 miNNE (30°)12.7 mph0.00 inSnowLight Snow
11:10 PM30.0 °F27.0 °F88 %30.08 in1.5 miNE (40°)10.4 mph0.00 inSnowLight Snow
11:15 PM30.0 °F28.0 °F92 %30.08 in0.8 miNNE (30°)10.4 mph0.01 inFog-SnowSnow
11:24 PM30.0 °F28.0 °F92 %30.09 in0.8 miNNE (20°)21.9 mph27.6 mph0.03 inSnowLight Snow
11:30 PM28.0 °F26.1 °F92 %30.09 in1.8 miNE (40°)17.3 mph27.6 mph0.04 inOvercast
11:37 PM28.0 °F25.0 °F88 %30.09 in5.0 miNNE (30°)17.3 mph0.04 inSnowLight Snow
11:42 PM28.0 °F25.0 °F88 %30.09 in4.0 miNNE (30°)16.1 mph0.04 inSnowLight Snow
11:53 PM28.0 °F25.0 °F88 %30.17 in1.5 miNNE (30°)13.8 mph0.04 inSnowLight Snow
Hourly data recorded from KBIL, located miles away from Acton, Montana







STORIES FROM OUR PARTNERS